Other Surface Observations
Issued by NWS Tucson, AZ

Home | Current Version | Previous Version | Text Only | Print | Product List | Glossary On
Versions: 1 2 3 4 5 6 7 8 9 10 11 12 13 14 15 16 17 18 19 20 21 22 23 24 25 26 27 28 29 30 31 32 33 34 35 36 37 38 39 40 41 42 43 44 45 46 47 48 49 50
892
SXUS55 KTWC 200015
OSOTWC

WEATHER ROUNDUP FOR SOUTHEAST ARIZONA
NATIONAL WEATHER SERVICE TUCSON AZ
515 PM MST THU JAN 19 2017

AZZ504>506-514-200115-
LOCATION       SKY/WX    TMP DP  RH WIND       PRES   REMARKS
TUCSON         MOCLDY    58  33  39 NE6       29.91S
DAVIS-MONTHAN  MOCLDY    56  34  42 NE9       29.90S
CHILDRENS PARK N/A      N/A N/A  40 E6                PIMA CO DEQ
ALVERNON/22ND  N/A       58 N/A N/A E5                PIMA CO DEQ
CHERRY/GLENN   N/A       58 N/A N/A E6                PIMA CO DEQ
TANGERINE      N/A       57 N/A N/A SE7               PIMA CO DEQ
CONTL RANCH    N/A       59  33  38 SE7               PIMA CO DEQ
GRANT/1ST      N/A       58  31  35 E6                PIMA CO DEQ
CRAYCROFT/22ND N/A       57  31  37 N/A               PIMA CO DEQ
GOLFLINKS/KOLB N/A       56  31  38 E4                PIMA CO DEQ
AJO/12TH       N/A       59  33  37 SE5               PIMA CO DEQ
FAIRGROUNDS    N/A       57 N/A N/A E3                PIMA CO DEQ
SAGUARO        N/A       55  37  51 NE4               *SABINO CYN
SAN CARLOS     N/A       48  41  77 SE2               *SAN CARLOS
GREEN VALLEY   N/A       61  32  33 S12               PIMA CO DEQ
HORSE CAMP CYN N/A       45  40  84 E5                *ARAVAIPA CYN
RINCON MTNS    NOT AVBL
$$

AZZ509>511-200115-
LOCATION       SKY/WX    TMP DP  RH WIND       PRES   REMARKS
SAFFORD        CLOUDY    47  42  83 W3        29.90S
STRAY HORSE    N/A       29  29  99 N/A               *
TRAIL CABIN    N/A       35  34  96 W3                *N OF GRANVILLE
BLACK HILLS    NOT AVBL
DRY LAKE       N/A       31  31  100 W3               *NATANES MTNS
NOON CREEK     NOT AVBL
COLUMBINE      N/A       27  27  100 SW9G18           *PINALENO MTNS
GUTHRIE        N/A       36  35  97 W3G10             *SW OF GUTHRIE
$$

AZZ502-503-513-200115-
LOCATION       SKY/WX    TMP DP  RH WIND       PRES   REMARKS
NOGALES        CLOUDY    55  31  39 SW14G22   29.94R
SELLS          N/A       61  32  33 NW10G17           *
SASABE         N/A       58  28  31 SW13G22           *ALTAR VLY
HOPKINS        N/A       38  27  64 W9G17             *SANTA RITA MTNS
CARR CYN       N/A       47  29  49 E2                *W OF HEREFORD
$$

AZZ507-508-512-200115-
LOCATION       SKY/WX    TMP DP  RH WIND       PRES   REMARKS
SIERRA VISTA   MOCLDY    52  28  40 SW9       29.94R
DOUGLAS        CLOUDY    55  30  38 W12       29.93S
EMPIRE MTNS    NOT AVBL
MULESHOE RANCH N/A       47  34  60 NW3               *PRESERVE
HEADQUARTERS   NOT AVBL
$$

.............................NOTES.............................
THIS IS AN AUTOMATED COLLECTIVE WITH MINIMAL QUALITY CONTROL.
PIMA CO DEQ SITES HAVE NONSTANDARD WIND SENSOR HEIGHTS.
PIMA CO DEQ SITES DO NOT REPORT WIND GUSTS.
* INDICATES WIND SENSORS LOCATED AT 20 FEET INSTEAD OF 33 FEET.
..............................KEY..............................
SKY/WX - SKY CONDITION/WEATHER
TMP    - TEMPERATURE IN FAHRENHEIT
DP     - DEWPOINT IN FAHRENHEIT
RH     - RELATIVE HUMIDITY IN PERCENT
WIND   - DIRECTION AND SPEED IN MILES PER HOUR (MPH)
VRB    - VARIABLE WIND DIRECTION
PRES   - MEAN SEA LEVEL PRESSURE IN INCHES OF MERCURY
         F - FALLING PRESSURE   R - RISING PRESSURE
         S - STEADY PRESSURE
VSB    - VISIBILITY IN MILES
HX     - HEAT INDEX IN FAHRENHEIT
WCI    - WIND CHILL INDEX IN FAHRENHEIT
N/A    - NOT AVAILABLE
AFB    - AIR FORCE BASE
         DAVIS-MONTHAN IS DAVIS-MONTHAN AIR FORCE BASE
CYN    - CANYON
MTNS   - MOUNTAINS
NCA    - NATIONAL CONSERVATION AREA
NR     - NEAR
VLY    - VALLEY
CONTL  - CONTINENTAL
PIMA CO DEQ - PIMA COUNTY DEPT OF ENVIRONMENTAL QUALITY



USA.gov is the U.S. government's official web portal to all federal, state and local government web resources and services.